Location: *
(51.5000°N, 0.1100°W)
Time: 00:13:39
(UTC+00:00)

MSX - Pass Details

Date: 06 August 2024
Orbit: 895 x 904 km, 99.0° (Epoch: 09 September)

Event Time Altitude Azimuth Distance (km) Brightness Sun altitude
Rises 01:51:09 0° 16° (NNE) 3,544 8.5 -18.2°
Reaches altitude 10° 01:53:35 10° 19° (NNE) 2,599 7.5 -18.0°
Maximum altitude 01:59:23 72° 104° (ESE) 956 4.0 -17.6°
Enters shadow 02:02:55 25° 184° (S) 1,759 4.8 -17.3°
